Time,TemperatureF,DewpointF,PressureIn,WindDirection,WindDirectionDegrees,WindSpeedMPH,WindSpeedGustMPH,Humidity,HourlyPrecipIn,Conditions,Clouds,dailyrainin,SolarRadiationWatts/m^2,SoftwareType,DateUTC
2013-01-16 00:03:00,74.6,67.0,30.05,East,100,9.0,-999.0,76,-99.99,,,0.00,0,weatherlink.com 1.10,2013-01-16 05:03:00,
2013-01-16 00:17:00,74.7,67.0,30.05,ESE,104,9.0,-999.0,76,-99.99,,,0.00,0,weatherlink.com 1.10,2013-01-16 05:17:00,
2013-01-16 00:33:00,74.6,67.0,30.05,East,101,12.0,-999.0,76,-99.99,,,0.00,0,weatherlink.com 1.10,2013-01-16 05:33:00,
2013-01-16 00:48:00,74.8,66.0,30.04,East,99,6.0,-999.0,75,-99.99,,,0.00,0,weatherlink.com 1.10,2013-01-16 05:48:00,
2013-01-16 01:03:00,74.7,67.0,30.05,ESE,103,5.0,-999.0,76,-99.99,,,0.00,0,weatherlink.com 1.10,2013-01-16 06:03:00,
2013-01-16 01:18:00,74.6,67.0,30.04,ESE,103,12.0,-999.0,77,-99.99,,,0.00,0,weatherlink.com 1.10,2013-01-16 06:18:00,
2013-01-16 01:33:00,74.6,67.0,30.04,East,101,11.0,-999.0,78,-99.99,,,0.00,0,weatherlink.com 1.10,2013-01-16 06:33:00,
2013-01-16 01:48:00,74.6,67.0,30.04,East,101,8.0,-999.0,77,-99.99,,,0.00,0,weatherlink.com 1.10,2013-01-16 06:48:00,
2013-01-16 02:03:00,74.5,68.0,30.04,East,99,8.0,-999.0,79,-99.99,,,0.00,0,weatherlink.com 1.10,2013-01-16 07:03:00,
2013-01-16 02:18:00,74.4,68.0,30.04,ESE,119,12.0,-999.0,79,-99.99,,,0.00,0,weatherlink.com 1.10,2013-01-16 07:18:00,
2013-01-16 02:33:00,74.2,67.0,30.05,ESE,115,4.0,-999.0,79,-99.99,,,0.00,0,weatherlink.com 1.10,2013-01-16 07:33:00,
2013-01-16 02:48:00,74.2,67.0,30.05,East,101,8.0,-999.0,79,-99.99,,,0.00,0,weatherlink.com 1.10,2013-01-16 07:48:00,
2013-01-16 03:03:00,74.3,68.0,30.05,ESE,104,5.0,-999.0,81,-99.99,,,0.00,0,weatherlink.com 1.10,2013-01-16 08:03:00,
2013-01-16 03:18:00,74.1,68.0,30.05,East,98,11.0,-999.0,82,-99.99,,,0.00,0,weatherlink.com 1.10,2013-01-16 08:18:00,
2013-01-16 03:33:00,74.2,68.0,30.05,ESE,104,8.0,-999.0,82,-99.99,,,0.00,0,weatherlink.com 1.10,2013-01-16 08:33:00,
2013-01-16 03:48:00,74.0,69.0,30.05,ESE,103,6.0,-999.0,83,-99.99,,,0.00,0,weatherlink.com 1.10,2013-01-16 08:48:00,
2013-01-16 04:03:00,73.8,69.0,30.05,ESE,104,7.0,-999.0,84,-99.99,,,0.00,0,weatherlink.com 1.10,2013-01-16 09:03:00,
2013-01-16 04:18:00,73.8,69.0,30.04,ESE,102,8.0,-999.0,84,-99.99,,,0.00,0,weatherlink.com 1.10,2013-01-16 09:18:00,
2013-01-16 04:33:00,73.6,69.0,30.04,ESE,103,8.0,-999.0,85,-99.99,,,0.00,0,weatherlink.com 1.10,2013-01-16 09:33:00,
2013-01-16 04:48:00,73.6,69.0,30.04,ESE,109,9.0,-999.0,85,-99.99,,,0.00,0,weatherlink.com 1.10,2013-01-16 09:48:00,
2013-01-16 05:03:00,73.8,69.0,30.04,ESE,121,12.0,-999.0,85,-99.99,,,0.00,0,weatherlink.com 1.10,2013-01-16 10:03:00,
2013-01-16 05:18:00,74.2,69.0,30.05,ESE,116,6.0,-999.0,84,-99.99,,,0.00,0,weatherlink.com 1.10,2013-01-16 10:18:00,
2013-01-16 05:33:00,74.3,69.0,30.05,ESE,119,12.0,-999.0,83,-99.99,,,0.00,0,weatherlink.com 1.10,2013-01-16 10:33:00,
2013-01-16 05:48:00,74.0,69.0,30.06,ESE,117,7.0,-999.0,83,-99.99,,,0.00,0,weatherlink.com 1.10,2013-01-16 10:48:00,
2013-01-16 06:03:00,74.1,69.0,30.05,ESE,119,9.0,-999.0,83,-99.99,,,0.00,0,weatherlink.com 1.10,2013-01-16 11:03:00,
2013-01-16 06:18:00,74.0,69.0,30.06,ESE,115,4.0,-999.0,85,-99.99,,,0.00,0,weatherlink.com 1.10,2013-01-16 11:18:00,
2013-01-16 06:33:00,73.8,69.0,30.06,ESE,123,6.0,-999.0,84,-99.99,,,0.00,0,weatherlink.com 1.10,2013-01-16 11:33:00,
2013-01-16 06:48:00,73.8,69.0,30.06,ESE,122,4.0,-999.0,84,-99.99,,,0.00,0,weatherlink.com 1.10,2013-01-16 11:48:00,
2013-01-16 07:03:00,73.9,69.0,30.06,ESE,121,7.0,-999.0,85,-99.99,,,0.00,0,weatherlink.com 1.10,2013-01-16 12:03:00,
2013-01-16 07:18:00,74.0,69.0,30.07,ESE,118,7.0,-999.0,85,-99.99,,,0.00,11,weatherlink.com 1.10,2013-01-16 12:18:00,
2013-01-16 07:33:00,74.3,69.0,30.07,ESE,117,9.0,-999.0,84,-99.99,,,0.00,18,weatherlink.com 1.10,2013-01-16 12:33:00,
2013-01-16 07:48:00,74.8,69.0,30.08,ESE,120,6.0,-999.0,82,-99.99,,,0.00,25,weatherlink.com 1.10,2013-01-16 12:48:00,
2013-01-16 08:03:00,75.1,70.0,30.09,ESE,121,5.0,-999.0,83,-99.99,,,0.00,42,weatherlink.com 1.10,2013-01-16 13:03:00,
2013-01-16 08:18:00,75.4,70.0,30.09,ESE,119,9.0,-999.0,82,-99.99,,,0.00,114,weatherlink.com 1.10,2013-01-16 13:18:00,
2013-01-16 08:33:00,75.8,70.0,30.09,ESE,119,7.0,-999.0,82,-99.99,,,0.00,218,weatherlink.com 1.10,2013-01-16 13:33:00,
2013-01-16 08:48:00,75.5,70.0,30.10,ESE,119,11.0,-999.0,82,-99.99,,,0.00,348,weatherlink.com 1.10,2013-01-16 13:48:00,
2013-01-16 09:03:00,75.6,69.0,30.11,ESE,121,7.0,-999.0,80,-99.99,,,0.00,169,weatherlink.com 1.10,2013-01-16 14:03:00,
2013-01-16 09:18:00,76.0,70.0,30.11,ESE,121,4.0,-999.0,81,-99.99,,,0.00,158,weatherlink.com 1.10,2013-01-16 14:18:00,
2013-01-16 09:33:00,75.9,70.0,30.11,ESE,120,4.0,-999.0,82,-99.99,,,0.00,199,weatherlink.com 1.10,2013-01-16 14:33:00,
2013-01-16 09:49:00,76.3,70.0,30.11,ESE,121,4.0,-999.0,81,-99.99,,,0.00,178,weatherlink.com 1.10,2013-01-16 14:49:00,
2013-01-16 10:04:00,76.1,70.0,30.11,ESE,122,7.0,-999.0,82,-99.99,,,0.00,279,weatherlink.com 1.10,2013-01-16 15:04:00,
2013-01-16 10:19:00,77.4,71.0,30.11,ESE,119,5.0,-999.0,80,-99.99,,,0.00,353,weatherlink.com 1.10,2013-01-16 15:19:00,
2013-01-16 10:34:00,76.3,71.0,30.11,ESE,115,8.0,-999.0,83,-99.99,,,0.00,158,weatherlink.com 1.10,2013-01-16 15:34:00,
2013-01-16 10:49:00,75.2,71.0,30.10,SE,124,9.0,-999.0,85,-99.99,,,0.00,132,weatherlink.com 1.10,2013-01-16 15:49:00,
2013-01-16 11:04:00,74.3,69.0,30.10,SSE,149,2.0,-999.0,84,-99.99,,,0.00,90,weatherlink.com 1.10,2013-01-16 16:04:00,
2013-01-16 11:19:00,73.0,69.0,30.09,SSE,149,1.0,-999.0,86,-99.99,,,0.01,199,weatherlink.com 1.10,2013-01-16 16:19:00,
2013-01-16 11:34:00,72.9,69.0,30.09,SSE,149,0.0,-999.0,88,-99.99,,,0.07,144,weatherlink.com 1.10,2013-01-16 16:34:00,
2013-01-16 11:49:00,73.1,70.0,30.08,SSE,149,0.0,-999.0,89,-99.99,,,0.13,100,weatherlink.com 1.10,2013-01-16 16:49:00,
2013-01-16 12:04:00,73.4,70.0,30.07,SSE,149,0.0,-999.0,90,-99.99,,,0.13,181,weatherlink.com 1.10,2013-01-16 17:04:00,
2013-01-16 12:19:00,74.2,71.0,30.06,ESE,103,6.0,-999.0,89,-99.99,,,0.13,137,weatherlink.com 1.10,2013-01-16 17:19:00,
2013-01-16 12:34:00,74.9,72.0,30.06,ESE,103,0.0,-999.0,90,-99.99,,,0.14,738,weatherlink.com 1.10,2013-01-16 17:34:00,
2013-01-16 12:49:00,76.3,72.0,30.05,SE,128,6.0,-999.0,86,-99.99,,,0.14,573,weatherlink.com 1.10,2013-01-16 17:49:00,
2013-01-16 13:04:00,77.3,71.0,30.05,SE,134,4.0,-999.0,82,-99.99,,,0.14,515,weatherlink.com 1.10,2013-01-16 18:04:00,
2013-01-16 13:19:00,77.8,71.0,30.04,SE,133,6.0,-999.0,80,-99.99,,,0.14,466,weatherlink.com 1.10,2013-01-16 18:19:00,
2013-01-16 13:34:00,77.7,70.0,30.04,SE,134,5.0,-999.0,78,-99.99,,,0.14,397,weatherlink.com 1.10,2013-01-16 18:34:00,
2013-01-16 13:49:00,78.5,72.0,30.04,SE,132,4.0,-999.0,79,-99.99,,,0.14,401,weatherlink.com 1.10,2013-01-16 18:49:00,
2013-01-16 14:04:00,78.5,72.0,30.03,SE,132,7.0,-999.0,79,-99.99,,,0.14,251,weatherlink.com 1.10,2013-01-16 19:04:00,
2013-01-16 14:19:00,77.3,71.0,30.03,SE,135,6.0,-999.0,81,-99.99,,,0.14,204,weatherlink.com 1.10,2013-01-16 19:19:00,
2013-01-16 14:34:00,77.7,71.0,30.03,SE,132,6.0,-999.0,80,-99.99,,,0.14,109,weatherlink.com 1.10,2013-01-16 19:34:00,
2013-01-16 14:49:00,77.4,71.0,30.03,SE,130,9.0,-999.0,81,-99.99,,,0.14,69,weatherlink.com 1.10,2013-01-16 19:49:00,
2013-01-16 15:04:00,77.7,71.0,30.03,SE,130,6.0,-999.0,80,-99.99,,,0.14,76,weatherlink.com 1.10,2013-01-16 20:04:00,
2013-01-16 15:19:00,77.7,71.0,30.02,SE,132,4.0,-999.0,81,-99.99,,,0.14,104,weatherlink.com 1.10,2013-01-16 20:19:00,
2013-01-16 15:34:00,77.6,71.0,30.03,SE,133,4.0,-999.0,80,-99.99,,,0.14,65,weatherlink.com 1.10,2013-01-16 20:34:00,
2013-01-16 15:49:00,77.6,71.0,30.03,SE,132,5.0,-999.0,81,-99.99,,,0.14,65,weatherlink.com 1.10,2013-01-16 20:49:00,
2013-01-16 16:04:00,77.4,71.0,30.04,SE,132,4.0,-999.0,80,-99.99,,,0.14,63,weatherlink.com 1.10,2013-01-16 21:04:00,
2013-01-16 16:19:00,77.3,71.0,30.04,SE,132,5.0,-999.0,81,-99.99,,,0.14,49,weatherlink.com 1.10,2013-01-16 21:19:00,
2013-01-16 16:34:00,77.0,71.0,30.04,SE,132,5.0,-999.0,82,-99.99,,,0.14,86,weatherlink.com 1.10,2013-01-16 21:34:00,
2013-01-16 16:49:00,77.1,71.0,30.04,SE,132,4.0,-999.0,82,-99.99,,,0.14,63,weatherlink.com 1.10,2013-01-16 21:49:00,
2013-01-16 17:04:00,76.9,71.0,30.05,SE,132,0.0,-999.0,82,-99.99,,,0.14,26,weatherlink.com 1.10,2013-01-16 22:04:00,
2013-01-16 17:19:00,76.7,71.0,30.04,SE,132,0.0,-999.0,83,-99.99,,,0.14,37,weatherlink.com 1.10,2013-01-16 22:19:00,
2013-01-16 17:34:00,76.3,71.0,30.05,SE,129,6.0,-999.0,84,-99.99,,,0.14,21,weatherlink.com 1.10,2013-01-16 22:34:00,
2013-01-16 17:49:00,75.9,71.0,30.05,ESE,122,4.0,-999.0,85,-99.99,,,0.14,7,weatherlink.com 1.10,2013-01-16 22:49:00,
2013-01-16 18:04:00,75.6,71.0,30.05,SE,127,5.0,-999.0,84,-99.99,,,0.14,0,weatherlink.com 1.10,2013-01-16 23:04:00,
2013-01-16 18:19:00,75.5,71.0,30.05,SE,128,2.0,-999.0,85,-99.99,,,0.14,0,weatherlink.com 1.10,2013-01-16 23:19:00,
2013-01-16 18:34:00,75.6,71.0,30.05,SE,127,5.0,-999.0,85,-99.99,,,0.14,0,weatherlink.com 1.10,2013-01-16 23:34:00,
2013-01-16 18:49:00,75.5,70.0,30.05,SE,131,5.0,-999.0,84,-99.99,,,0.14,0,weatherlink.com 1.10,2013-01-16 23:49:00,
2013-01-16 19:04:00,75.5,71.0,30.06,SE,132,6.0,-999.0,85,-99.99,,,0.14,0,weatherlink.com 1.10,2013-01-17 00:04:00,
2013-01-16 19:19:00,75.5,70.0,30.06,SE,130,7.0,-999.0,84,-99.99,,,0.14,0,weatherlink.com 1.10,2013-01-17 00:19:00,
2013-01-16 19:34:00,75.3,70.0,30.07,SE,128,5.0,-999.0,84,-99.99,,,0.14,0,weatherlink.com 1.10,2013-01-17 00:34:00,
2013-01-16 19:49:00,75.2,70.0,30.07,SE,130,2.0,-999.0,84,-99.99,,,0.14,0,weatherlink.com 1.10,2013-01-17 00:49:00,
2013-01-16 20:04:00,75.1,70.0,30.07,SE,129,5.0,-999.0,85,-99.99,,,0.14,0,weatherlink.com 1.10,2013-01-17 01:04:00,
2013-01-16 20:19:00,75.0,70.0,30.07,SE,124,7.0,-999.0,85,-99.99,,,0.14,0,weatherlink.com 1.10,2013-01-17 01:19:00,
2013-01-16 20:34:00,75.1,70.0,30.07,ESE,119,7.0,-999.0,85,-99.99,,,0.14,0,weatherlink.com 1.10,2013-01-17 01:34:00,
2013-01-16 20:49:00,75.2,71.0,30.07,ESE,121,5.0,-999.0,86,-99.99,,,0.14,0,weatherlink.com 1.10,2013-01-17 01:49:00,
2013-01-16 21:04:00,75.0,71.0,30.07,ESE,121,6.0,-999.0,86,-99.99,,,0.14,0,weatherlink.com 1.10,2013-01-17 02:04:00,
2013-01-16 21:19:00,75.1,71.0,30.07,ESE,120,0.0,-999.0,86,-99.99,,,0.14,0,weatherlink.com 1.10,2013-01-17 02:19:00,
2013-01-16 21:34:00,75.0,71.0,30.06,ESE,121,2.0,-999.0,86,-99.99,,,0.14,0,weatherlink.com 1.10,2013-01-17 02:34:00,
2013-01-16 21:49:00,75.1,71.0,30.06,ESE,123,4.0,-999.0,86,-99.99,,,0.14,0,weatherlink.com 1.10,2013-01-17 02:49:00,
2013-01-16 22:04:00,75.2,71.0,30.06,SE,128,5.0,-999.0,86,-99.99,,,0.14,0,weatherlink.com 1.10,2013-01-17 03:04:00,
2013-01-16 22:19:00,75.2,71.0,30.06,SE,134,5.0,-999.0,85,-99.99,,,0.14,0,weatherlink.com 1.10,2013-01-17 03:19:00,
2013-01-16 22:34:00,75.1,70.0,30.05,SE,128,5.0,-999.0,84,-99.99,,,0.14,0,weatherlink.com 1.10,2013-01-17 03:34:00,
2013-01-16 22:49:00,75.1,70.0,30.05,SE,128,7.0,-999.0,84,-99.99,,,0.14,0,weatherlink.com 1.10,2013-01-17 03:49:00,
2013-01-16 23:04:00,75.1,70.0,30.05,SE,133,4.0,-999.0,84,-99.99,,,0.14,0,weatherlink.com 1.10,2013-01-17 04:04:00,
2013-01-16 23:19:00,75.1,70.0,30.04,SE,132,4.0,-999.0,83,-99.99,,,0.14,0,weatherlink.com 1.10,2013-01-17 04:19:00,
2013-01-16 23:34:00,75.1,70.0,30.05,SE,132,0.0,-999.0,83,-99.99,,,0.14,0,weatherlink.com 1.10,2013-01-17 04:34:00,
2013-01-16 23:49:00,74.9,69.0,30.05,SE,134,2.0,-999.0,83,-99.99,,,0.14,0,weatherlink.com 1.10,2013-01-17 04:49:00,